[ hide orbit diagram ]
For accurate long-term ephemerides, please instead use our Horizons system.This orbit viewer was implemented using two-body methods, and hence should not be used for determining accurate long-term trajectories (over several years or decades) or planetary encounter circumstances.
Orbital Elements at Epoch 2459200.5 (2020-Dec-17.0) TDB
Reference: JPL 15 (heliocentric ecliptic J2000)
Element | Value | Uncertainty (1-sigma) | Units |
e | .111526369820883 | 4.1287e-08 | |
a | 2.409619907776469 | 1.2949e-08 | au |
q | 2.140883746814028 | 1.0113e-07 | au |
i | 7.922722329689134 | 5.2533e-06 | deg |
node | 141.8962966821503 | 3.1864e-05 | deg |
peri | 337.4630819744762 | 3.9462e-05 | deg |
M | 204.6048790982959 | 2.2645e-05 | deg |
tp | 2459790.233934477857 (2022-Jul-29.73393448) | 8.6757e-05 | TDB |
period | 1366.221894098739 3.74 | 1.1013e-05 3.015e-08 | d yr |
n | .2635003885935254 | 2.124e-09 | deg/d |
Q | 2.67835606873891 | 1.4393e-08 | au |
|
| | Orbit Determination Parameters
Additional Information
|
[ show covariance matrix ]
Physical Parameter Table
Parameter |
Symbol |
Value |
Units |
Sigma |
Reference |
Notes |
absolute magnitude |
H |
16.5 |
|
n/a |
MPO268159 |
|
|
183863 (2004 CE14) Discovered 2004-Feb-11 by LONEOS at Anderson Mesa |
Reference: 20080420/Numbers.arc | Last Updated: 2008-04-23 |
|
[ hide close-approach data ]
Close-Approach Data ...sorted by Date/Time (TDB)
|
Date/Time (TDB) |
Time Uncertainty (days_HH:MM) |
Body |
Nominal Distance (au) |
Minimum Distance (au) |
Maximum Distance (au) |
V-relative (km/s) |
V-infinity (km/s) |
JD (TDB) |
Time Uncertainty (minutes) |
Semi-major axis (km) |
Semi-minor axis (km) |
range-LOV angle (deg) |
N-sigma |
BP |
Orbit Ref. |
Reference |
Modified |
2039-Aug-29 08:19 |
00:05 |
Psych |
0.0187330093468235 |
0.0187295861688833 |
0.0187364337188055 |
2.56001618514694 |
2.56001593285526 |
2466029.846868880 |
4.80534011225883 |
298.314390730616 |
47.3017443566169 |
-56.2562833550385 |
49429.7121047709 |
T |
15 |
CATAB v2.0f-lin.ifort 2020-Feb-24 19:42:47 |
2020-Feb-24 19:42 |
|
|